ROMMA est une association bénévole à but non lucratif. Votre soutien est indispensable : ADHERER à ROMMA ou FAIRE un DON

Briord - (01, Ain)

Bugey (281 m)   Longitude: 05° 29' 13" E   Latitude: 45° 46' 37" N Station partenaire n°15
 

Détail journalier du     <<     >>

Température Precipitation Humidité Pression Vent Dir Rafale Dir. rafale Ensol.
Heure (°C) (mm) (%) (hPa) (km/h) (km/h) (min)
01:00 -0.2094103400---0
02:00 -0.9094103400---0
03:00 -1.0094103400---0
04:00 -0.7094103400---0
05:00 -1.2094103400---0
06:00 -1.6094103400---0
07:00 -1.7094103300---0
08:00 -2.2094103400---0
09:00 -1.9094103400---0
10:00 0.60.294103400---40
11:00 2.8091103400---60
12:00 4.2087103400---60
13:00 6.1084103400---60
14:00 7.708010331---6NO60
15:00 8.0080103303O60
16:00 6.9082103200---60
17:00 4.2089103300---30
18:00 1.5092103300---0
19:00 0.4093103300---0
20:00 -0.4093103300---0
21:00 -0.8093103400---0
22:00 -0.8094103300---0
23:00 -0.8095103400---0
minuit -0.6095103300---0

Graphique du 31-12-2019

 

Serveur OMMA